This is the latest recevied weather packets stored in our database for station/object WB4YDL. If no packets are shown the sender has not sent any weather packets the latest 10 day(s).
| Time | Temp. | Humidity | Pressure | Rain* | Wind** | Luminosity | Snow |
|---|---|---|---|---|---|---|---|
| 1778043788 | 10.56° C | 99% | 1003.8 hPa | 3.05 mm | - | 0 W/m² | - |
| 1778043485 | 10.56° C | 99% | 1003.4 hPa | 1.78 mm | - | 0 W/m² | - |
| 1778043181 | 10.56° C | 99% | 1003.6 hPa | 0 mm | - | 0 W/m² | - |
| 1778042878 | 10.56° C | 99% | 1003.7 hPa | 0 mm | - | 0 W/m² | - |
| 1778042576 | 11.11° C | 99% | 1003.7 hPa | 0 mm | - | 0 W/m² | - |
| 1778042273 | 11.11° C | 99% | 1003.7 hPa | 0 mm | - | 0 W/m² | - |
| 1778041970 | 11.11° C | 99% | 1003.3 hPa | 0 mm | - | 0 W/m² | - |
| 1778041669 | 11.11° C | 99% | 1003.2 hPa | 0 mm | - | 0 W/m² | - |
| 1778041368 | 11.11° C | 99% | 1003 hPa | 0 mm | - | 0 W/m² | - |
| 1778041066 | 11.11° C | 99% | 1003 hPa | 1.27 mm | - | 0 W/m² | - |
| 1778040762 | 11.11° C | 99% | 1003.4 hPa | 4.32 mm | - | 0 W/m² | - |
| 1778040460 | 11.11° C | 99% | 1003.7 hPa | 7.87 mm | - | 0 W/m² | - |
| 1778040157 | 11.67° C | 99% | 1003.8 hPa | 6.1 mm | - | 0 W/m² | - |
| 1778039853 | 11.67° C | 99% | 1004.1 hPa | 1.27 mm | - | 0 W/m² | - |
| 1778039550 | 11.67° C | 99% | 1003.8 hPa | 0 mm | - | 0 W/m² | - |
| 1778039247 | 11.67° C | 99% | 1003.9 hPa | 0 mm | - | 0 W/m² | - |
| 1778038944 | 11.67° C | 99% | 1003.4 hPa | 0 mm | - | 0 W/m² | - |
| 1778038642 | 11.67° C | 99% | 1003.1 hPa | 0 mm | - | 0 W/m² | - |
| 1778038339 | 11.67° C | 99% | 1003.1 hPa | 0 mm | - | 0 W/m² | - |
| 1778038036 | 11.67° C | 99% | 1003.1 hPa | 0 mm | - | 0 W/m² | - |
| 1778037732 | 11.67° C | 99% | 1003.1 hPa | 0 mm | - | 0 W/m² | - |
| 1778037429 | 12.22° C | 99% | 1003.1 hPa | 0 mm | - | 0 W/m² | - |
| 1778037126 | 12.22° C | 99% | 1003.1 hPa | 0 mm | - | 0 W/m² | - |
| 1778036825 | 12.78° C | 99% | 1003.1 hPa | 0 mm | - | 0 W/m² | - |
| 1778036522 | 12.78° C | 99% | 1003.2 hPa | 0 mm | - | 0 W/m² | - |
* Rain latest hour (hover to see other rain measurements)
** Current wind speed in m/s (hover to see current wind gust speed)